Time,TemperatureF,DewpointF,PressureIn,WindDirection,WindDirectionDegrees,WindSpeedMPH,WindSpeedGustMPH,Humidity,HourlyPrecipIn,Conditions,Clouds,dailyrainin,SoftwareType,DateUTC
2013-06-01 00:00:00,68.9,65.2,30.07,SW,217,0.0,0.0,88,0.00,,,0.00,WUHU216DAVISVP2,2013-06-01 04:00:00,
2013-06-01 00:02:00,68.9,65.2,30.07,SW,217,0.0,0.0,88,0.00,,,0.00,WUHU216DAVISVP2,2013-06-01 04:02:00,
2013-06-01 00:03:00,68.9,65.2,30.07,SW,217,0.0,0.0,88,0.00,,,0.00,WUHU216DAVISVP2,2013-06-01 04:03:00,
2013-06-01 00:08:00,68.7,65.0,30.07,SW,217,0.0,0.0,88,0.00,,,0.00,WUHU216DAVISVP2,2013-06-01 04:08:00,
2013-06-01 00:13:00,68.6,64.9,30.07,SW,217,0.0,0.0,88,0.00,,,0.00,WUHU216DAVISVP2,2013-06-01 04:13:00,
2013-06-01 00:18:00,68.5,64.8,30.07,SW,217,0.0,0.0,88,0.00,,,0.00,WUHU216DAVISVP2,2013-06-01 04:18:00,
2013-06-01 00:23:00,68.4,64.7,30.07,SW,217,0.0,0.0,88,0.00,,,0.00,WUHU216DAVISVP2,2013-06-01 04:23:00,
2013-06-01 00:28:00,68.3,64.6,30.07,SW,217,0.0,0.0,88,0.00,,,0.00,WUHU216DAVISVP2,2013-06-01 04:28:00,
2013-06-01 00:33:00,68.1,64.7,30.07,SW,217,0.0,0.0,89,0.00,,,0.00,WUHU216DAVISVP2,2013-06-01 04:33:00,
2013-06-01 00:38:00,68.1,64.7,30.07,SW,217,0.0,0.0,89,0.00,,,0.00,WUHU216DAVISVP2,2013-06-01 04:38:00,
2013-06-01 00:43:00,67.9,64.5,30.07,SW,217,0.0,0.0,89,0.00,,,0.00,WUHU216DAVISVP2,2013-06-01 04:43:00,
2013-06-01 00:48:00,67.8,64.4,30.08,SW,217,0.0,0.0,89,0.00,,,0.00,WUHU216DAVISVP2,2013-06-01 04:48:00,
2013-06-01 00:53:00,67.7,64.3,30.08,SW,217,0.0,0.0,89,0.00,,,0.00,WUHU216DAVISVP2,2013-06-01 04:53:00,
2013-06-01 00:58:00,67.6,64.2,30.08,SW,217,0.0,0.0,89,0.00,,,0.00,WUHU216DAVISVP2,2013-06-01 04:58:00,
2013-06-01 01:03:00,67.5,64.4,30.08,SW,217,0.0,0.0,90,0.00,,,0.00,WUHU216DAVISVP2,2013-06-01 05:03:00,
2013-06-01 01:08:00,67.4,64.0,30.09,SW,217,0.0,0.0,89,0.00,,,0.00,WUHU216DAVISVP2,2013-06-01 05:08:00,
2013-06-01 01:13:00,67.3,64.2,30.09,SW,217,0.0,0.0,90,0.00,,,0.00,WUHU216DAVISVP2,2013-06-01 05:13:00,
2013-06-01 01:18:00,67.2,64.2,30.10,SW,217,0.0,0.0,90,0.00,,,0.00,WUHU216DAVISVP2,2013-06-01 05:18:00,
2013-06-01 01:23:00,67.2,64.2,30.10,SW,217,0.0,0.0,90,0.00,,,0.00,WUHU216DAVISVP2,2013-06-01 05:23:00,
2013-06-01 01:28:00,67.1,64.1,30.10,SW,217,0.0,0.0,90,0.00,,,0.00,WUHU216DAVISVP2,2013-06-01 05:28:00,
2013-06-01 01:33:00,67.0,64.0,30.09,SW,217,0.0,0.0,90,0.00,,,0.00,WUHU216DAVISVP2,2013-06-01 05:33:00,
2013-06-01 01:38:00,67.0,63.9,30.10,SW,217,0.0,0.0,90,0.00,,,0.00,WUHU216DAVISVP2,2013-06-01 05:38:00,
2013-06-01 01:43:00,66.9,63.9,30.10,SW,217,0.0,0.0,90,0.00,,,0.00,WUHU216DAVISVP2,2013-06-01 05:43:00,
2013-06-01 01:48:00,66.9,63.9,30.09,SW,217,0.0,0.0,90,0.00,,,0.00,WUHU216DAVISVP2,2013-06-01 05:48:00,
2013-06-01 01:53:00,66.9,63.9,30.09,SW,217,0.0,1.0,90,0.00,,,0.00,WUHU216DAVISVP2,2013-06-01 05:53:00,
2013-06-01 01:58:00,66.8,63.8,30.09,SW,217,0.0,1.0,90,0.00,,,0.00,WUHU216DAVISVP2,2013-06-01 05:58:00,
2013-06-01 02:03:00,66.8,64.1,30.09,SW,217,0.0,1.0,91,0.00,,,0.00,WUHU216DAVISVP2,2013-06-01 06:03:00,
2013-06-01 02:08:00,66.7,64.0,30.09,SW,217,0.0,1.0,91,0.00,,,0.00,WUHU216DAVISVP2,2013-06-01 06:08:00,
2013-06-01 02:13:00,66.7,64.0,30.09,SW,217,0.0,0.0,91,0.00,,,0.00,WUHU216DAVISVP2,2013-06-01 06:13:00,
2013-06-01 02:18:00,66.7,64.0,30.09,SW,217,0.0,0.0,91,0.00,,,0.00,WUHU216DAVISVP2,2013-06-01 06:18:00,
2013-06-01 02:23:00,66.7,64.0,30.09,SW,217,0.0,0.0,91,0.00,,,0.00,WUHU216DAVISVP2,2013-06-01 06:23:00,
2013-06-01 02:28:00,66.8,64.1,30.09,SW,217,0.0,0.0,91,0.00,,,0.00,WUHU216DAVISVP2,2013-06-01 06:28:00,
2013-06-01 02:33:00,67.0,64.3,30.09,SW,217,0.0,0.0,91,0.00,,,0.00,WUHU216DAVISVP2,2013-06-01 06:33:00,
2013-06-01 02:38:00,67.1,64.7,30.09,SW,217,0.0,0.0,92,0.00,,,0.00,WUHU216DAVISVP2,2013-06-01 06:38:00,
2013-06-01 02:43:00,67.3,64.9,30.09,SW,217,0.0,0.0,92,0.00,,,0.00,WUHU216DAVISVP2,2013-06-01 06:43:00,
2013-06-01 02:48:00,67.4,64.7,30.09,SW,217,0.0,0.0,91,0.00,,,0.00,WUHU216DAVISVP2,2013-06-01 06:48:00,
2013-06-01 02:53:00,67.5,64.8,30.10,SW,217,0.0,0.0,91,0.00,,,0.00,WUHU216DAVISVP2,2013-06-01 06:53:00,
2013-06-01 02:58:00,67.6,64.9,30.09,SW,217,0.0,0.0,91,0.00,,,0.00,WUHU216DAVISVP2,2013-06-01 06:58:00,
2013-06-01 03:03:00,67.7,65.0,30.09,SW,217,0.0,0.0,91,0.00,,,0.00,WUHU216DAVISVP2,2013-06-01 07:03:00,
2013-06-01 03:08:00,67.8,65.1,30.09,SW,217,0.0,0.0,91,0.00,,,0.00,WUHU216DAVISVP2,2013-06-01 07:08:00,
2013-06-01 03:13:00,67.9,65.2,30.09,SW,217,0.0,0.0,91,0.00,,,0.00,WUHU216DAVISVP2,2013-06-01 07:13:00,
2013-06-01 03:18:00,68.0,65.2,30.09,SW,217,0.0,0.0,91,0.00,,,0.00,WUHU216DAVISVP2,2013-06-01 07:18:00,
2013-06-01 03:23:00,68.0,65.3,30.08,SW,217,0.0,0.0,91,0.00,,,0.00,WUHU216DAVISVP2,2013-06-01 07:23:00,
2013-06-01 03:28:00,68.1,65.4,30.08,SW,217,0.0,0.0,91,0.00,,,0.00,WUHU216DAVISVP2,2013-06-01 07:28:00,
2013-06-01 03:33:00,68.2,65.4,30.08,SW,217,0.0,0.0,91,0.00,,,0.00,WUHU216DAVISVP2,2013-06-01 07:33:00,
2013-06-01 03:38:00,68.2,65.1,30.08,SW,217,0.0,0.0,90,0.00,,,0.00,WUHU216DAVISVP2,2013-06-01 07:38:00,
2013-06-01 03:43:00,68.3,65.5,30.08,SW,217,0.0,0.0,91,0.00,,,0.00,WUHU216DAVISVP2,2013-06-01 07:43:00,
2013-06-01 03:48:00,68.3,65.2,30.08,SW,217,0.0,0.0,90,0.00,,,0.00,WUHU216DAVISVP2,2013-06-01 07:48:00,
2013-06-01 03:53:00,68.3,65.2,30.08,SW,217,0.0,0.0,90,0.00,,,0.00,WUHU216DAVISVP2,2013-06-01 07:53:00,
2013-06-01 03:58:00,68.4,65.0,30.08,SW,217,0.0,0.0,89,0.00,,,0.00,WUHU216DAVISVP2,2013-06-01 07:58:00,
2013-06-01 04:03:00,68.6,65.2,30.08,SW,217,0.0,0.0,89,0.00,,,0.00,WUHU216DAVISVP2,2013-06-01 08:03:00,
2013-06-01 04:08:00,68.6,65.2,30.08,SW,217,0.0,0.0,89,0.00,,,0.00,WUHU216DAVISVP2,2013-06-01 08:08:00,
2013-06-01 04:13:00,68.8,65.1,30.07,SW,217,0.0,0.0,88,0.00,,,0.00,WUHU216DAVISVP2,2013-06-01 08:13:00,
2013-06-01 04:18:00,68.8,65.4,30.07,SW,217,0.0,0.0,89,0.00,,,0.00,WUHU216DAVISVP2,2013-06-01 08:18:00,
2013-06-01 04:23:00,68.8,65.1,30.08,SW,217,0.0,0.0,88,0.00,,,0.00,WUHU216DAVISVP2,2013-06-01 08:23:00,
2013-06-01 04:28:00,68.7,65.3,30.08,SW,217,0.0,1.0,89,0.00,,,0.00,WUHU216DAVISVP2,2013-06-01 08:28:00,
2013-06-01 04:33:00,68.6,64.9,30.08,SW,217,0.0,1.0,88,0.00,,,0.00,WUHU216DAVISVP2,2013-06-01 08:33:00,
2013-06-01 04:38:00,68.6,64.6,30.08,SW,217,0.0,1.0,87,0.00,,,0.00,WUHU216DAVISVP2,2013-06-01 08:38:00,
2013-06-01 04:43:00,68.6,64.9,30.07,SW,217,0.0,1.0,88,0.00,,,0.00,WUHU216DAVISVP2,2013-06-01 08:43:00,
2013-06-01 04:48:00,68.5,64.8,30.07,SW,217,0.0,1.0,88,0.00,,,0.00,WUHU216DAVISVP2,2013-06-01 08:48:00,
2013-06-01 04:53:00,68.3,64.6,30.07,SW,217,0.0,1.0,88,0.00,,,0.00,WUHU216DAVISVP2,2013-06-01 08:53:00,
2013-06-01 04:58:00,68.2,64.5,30.08,SW,217,0.0,1.0,88,0.00,,,0.00,WUHU216DAVISVP2,2013-06-01 08:58:00,
2013-06-01 05:03:00,68.1,64.4,30.07,SW,217,0.0,1.0,88,0.00,,,0.00,WUHU216DAVISVP2,2013-06-01 09:03:00,
2013-06-01 05:08:00,67.9,64.2,30.07,SW,217,0.0,1.0,88,0.00,,,0.00,WUHU216DAVISVP2,2013-06-01 09:08:00,
2013-06-01 05:13:00,67.8,64.1,30.07,SW,217,0.0,1.0,88,0.00,,,0.00,WUHU216DAVISVP2,2013-06-01 09:13:00,
2013-06-01 05:18:00,67.7,64.3,30.07,SW,217,0.0,0.0,89,0.00,,,0.00,WUHU216DAVISVP2,2013-06-01 09:18:00,
2013-06-01 05:23:00,67.6,64.2,30.07,SW,217,0.0,0.0,89,0.00,,,0.00,WUHU216DAVISVP2,2013-06-01 09:23:00,
2013-06-01 05:28:00,67.5,64.1,30.08,SW,217,0.0,0.0,89,0.00,,,0.00,WUHU216DAVISVP2,2013-06-01 09:28:00,
2013-06-01 05:33:00,67.4,64.0,30.08,SW,217,0.0,0.0,89,0.00,,,0.00,WUHU216DAVISVP2,2013-06-01 09:33:00,
2013-06-01 05:38:00,67.2,64.1,30.08,SW,217,0.0,0.0,90,0.00,,,0.00,WUHU216DAVISVP2,2013-06-01 09:38:00,
2013-06-01 05:43:00,67.0,63.9,30.07,SW,217,0.0,0.0,90,0.00,,,0.00,WUHU216DAVISVP2,2013-06-01 09:43:00,
2013-06-01 05:48:00,66.9,63.9,30.07,SW,217,0.0,0.0,90,0.00,,,0.00,WUHU216DAVISVP2,2013-06-01 09:48:00,
2013-06-01 05:53:00,66.8,63.8,30.07,SW,217,0.0,0.0,90,0.00,,,0.00,WUHU216DAVISVP2,2013-06-01 09:53:00,
2013-06-01 05:58:00,66.7,63.7,30.08,SW,217,0.0,0.0,90,0.00,,,0.00,WUHU216DAVISVP2,2013-06-01 09:58:00,
2013-06-01 06:03:00,66.6,63.9,30.08,SW,217,1.0,1.0,91,0.00,,,0.00,WUHU216DAVISVP2,2013-06-01 10:03:00,
2013-06-01 06:08:00,66.5,63.8,30.08,SW,217,0.0,1.0,91,0.00,,,0.00,WUHU216DAVISVP2,2013-06-01 10:08:00,
2013-06-01 06:13:00,66.3,63.6,30.08,SW,217,0.0,1.0,91,0.00,,,0.00,WUHU216DAVISVP2,2013-06-01 10:13:00,
2013-06-01 06:18:00,66.2,63.5,30.08,SW,217,0.0,1.0,91,0.00,,,0.00,WUHU216DAVISVP2,2013-06-01 10:18:00,
2013-06-01 06:23:00,66.1,63.7,30.08,SW,217,0.0,1.0,92,0.00,,,0.00,WUHU216DAVISVP2,2013-06-01 10:23:00,
2013-06-01 06:28:00,66.2,63.8,30.08,SW,217,0.0,2.0,92,0.00,,,0.00,WUHU216DAVISVP2,2013-06-01 10:28:00,
2013-06-01 06:33:00,66.3,63.9,30.07,SW,217,0.0,2.0,92,0.00,,,0.00,WUHU216DAVISVP2,2013-06-01 10:33:00,
2013-06-01 06:38:00,66.4,64.0,30.08,SW,217,0.0,2.0,92,0.00,,,0.00,WUHU216DAVISVP2,2013-06-01 10:38:00,
2013-06-01 06:43:00,66.5,64.1,30.07,SW,217,0.0,2.0,92,0.00,,,0.00,WUHU216DAVISVP2,2013-06-01 10:43:00,
2013-06-01 06:48:00,66.7,64.3,30.07,SW,217,0.0,1.0,92,0.00,,,0.00,WUHU216DAVISVP2,2013-06-01 10:48:00,
2013-06-01 06:53:00,66.9,64.2,30.07,SW,217,0.0,1.0,91,0.00,,,0.00,WUHU216DAVISVP2,2013-06-01 10:53:00,
2013-06-01 06:58:00,67.0,64.3,30.07,SW,217,0.0,1.0,91,0.00,,,0.00,WUHU216DAVISVP2,2013-06-01 10:58:00,
2013-06-01 07:03:00,67.4,64.7,30.07,SW,217,0.0,1.0,91,0.00,,,0.00,WUHU216DAVISVP2,2013-06-01 11:03:00,
2013-06-01 07:08:00,67.6,64.9,30.07,SW,217,0.0,1.0,91,0.00,,,0.00,WUHU216DAVISVP2,2013-06-01 11:08:00,
2013-06-01 07:13:00,67.8,65.1,30.07,SW,217,0.0,2.0,91,0.00,,,0.00,WUHU216DAVISVP2,2013-06-01 11:13:00,
2013-06-01 07:18:00,68.1,65.0,30.07,SW,217,0.0,2.0,90,0.00,,,0.00,WUHU216DAVISVP2,2013-06-01 11:18:00,
2013-06-01 07:23:00,68.5,65.4,30.07,SW,217,1.0,3.0,90,0.00,,,0.00,WUHU216DAVISVP2,2013-06-01 11:23:00,
2013-06-01 07:28:00,69.0,65.6,30.07,SSW,207,5.0,5.0,89,0.00,,,0.00,WUHU216DAVISVP2,2013-06-01 11:28:00,
2013-06-01 07:33:00,69.7,66.3,30.07,WSW,244,6.0,8.0,89,0.00,,,0.00,WUHU216DAVISVP2,2013-06-01 11:33:00,
2013-06-01 07:38:00,70.3,66.6,30.07,South,175,0.0,8.0,88,0.00,,,0.00,WUHU216DAVISVP2,2013-06-01 11:38:00,
2013-06-01 07:43:00,70.8,66.7,30.08,SW,232,3.0,7.0,87,0.00,,,0.00,WUHU216DAVISVP2,2013-06-01 11:43:00,
2013-06-01 07:48:00,71.1,67.4,30.08,SW,229,1.0,7.0,88,0.00,,,0.00,WUHU216DAVISVP2,2013-06-01 11:48:00,
2013-06-01 07:53:00,71.5,66.8,30.08,SW,230,2.0,8.0,85,0.00,,,0.00,WUHU216DAVISVP2,2013-06-01 11:53:00,
2013-06-01 07:59:00,71.9,67.2,30.07,SW,232,1.0,8.0,85,0.00,,,0.00,WUHU216DAVISVP2,2013-06-01 11:59:00,
2013-06-01 08:04:00,72.4,67.3,30.08,WSW,256,6.0,8.0,84,0.00,,,0.00,WUHU216DAVISVP2,2013-06-01 12:04:00,
2013-06-01 08:09:00,73.2,67.4,30.07,SW,236,3.0,12.0,82,0.00,,,0.00,WUHU216DAVISVP2,2013-06-01 12:09:00,
2013-06-01 08:14:00,74.2,68.1,30.07,WSW,239,2.0,12.0,81,0.00,,,0.00,WUHU216DAVISVP2,2013-06-01 12:14:00,
2013-06-01 08:19:00,75.2,68.3,30.07,WSW,252,4.0,12.0,79,0.00,,,0.00,WUHU216DAVISVP2,2013-06-01 12:19:00,
2013-06-01 08:24:00,76.3,69.4,30.07,WSW,240,6.0,12.0,79,0.00,,,0.00,WUHU216DAVISVP2,2013-06-01 12:24:00,
2013-06-01 08:29:00,76.9,68.9,30.07,WSW,237,5.0,14.0,76,0.00,,,0.00,WUHU216DAVISVP2,2013-06-01 12:29:00,
2013-06-01 08:34:00,77.0,69.2,30.07,SW,236,4.0,14.0,77,0.00,,,0.00,WUHU216DAVISVP2,2013-06-01 12:34:00,
2013-06-01 08:39:00,77.1,69.1,30.07,SW,234,2.0,14.0,76,0.00,,,0.00,WUHU216DAVISVP2,2013-06-01 12:39:00,
2013-06-01 08:44:00,77.0,68.9,30.07,SSW,211,4.0,14.0,76,0.00,,,0.00,WUHU216DAVISVP2,2013-06-01 12:44:00,
2013-06-01 08:49:00,77.1,68.7,30.07,SW,223,6.0,15.0,75,0.00,,,0.00,WUHU216DAVISVP2,2013-06-01 12:49:00,
2013-06-01 08:54:00,77.4,69.0,30.06,SW,236,7.0,15.0,75,0.00,,,0.00,WUHU216DAVISVP2,2013-06-01 12:54:00,
2013-06-01 08:59:00,77.4,68.9,30.06,SW,226,10.0,15.0,75,0.00,,,0.00,WUHU216DAVISVP2,2013-06-01 12:59:00,
2013-06-01 09:04:00,77.3,69.3,30.07,SW,223,6.0,14.0,76,0.00,,,0.00,WUHU216DAVISVP2,2013-06-01 13:04:00,
2013-06-01 09:09:00,77.3,70.0,30.07,SSW,211,2.0,14.0,78,0.00,,,0.00,WUHU216DAVISVP2,2013-06-01 13:09:00,
2013-06-01 09:14:00,77.4,69.4,30.07,SW,218,6.0,12.0,76,0.00,,,0.00,WUHU216DAVISVP2,2013-06-01 13:14:00,
2013-06-01 09:19:00,77.4,69.4,30.08,SSW,200,3.0,12.0,76,0.00,,,0.00,WUHU216DAVISVP2,2013-06-01 13:19:00,
2013-06-01 09:24:00,77.4,69.4,30.08,SW,216,4.0,12.0,76,0.00,,,0.00,WUHU216DAVISVP2,2013-06-01 13:24:00,
2013-06-01 09:29:00,77.4,70.1,30.08,SSW,203,3.0,12.0,78,0.00,,,0.00,WUHU216DAVISVP2,2013-06-01 13:29:00,
2013-06-01 09:34:00,77.5,69.9,30.07,SW,236,5.0,12.0,77,0.00,,,0.00,WUHU216DAVISVP2,2013-06-01 13:34:00,
2013-06-01 09:39:00,77.9,69.5,30.07,WSW,248,9.0,12.0,75,0.00,,,0.00,WUHU216DAVISVP2,2013-06-01 13:39:00,
2013-06-01 09:44:00,78.2,69.8,30.07,WSW,242,7.0,12.0,75,0.00,,,0.00,WUHU216DAVISVP2,2013-06-01 13:44:00,
2013-06-01 09:49:00,78.6,70.6,30.06,SW,224,4.0,18.0,76,0.00,,,0.00,WUHU216DAVISVP2,2013-06-01 13:49:00,
2013-06-01 09:54:00,78.7,69.9,30.07,WSW,250,6.0,18.0,74,0.00,,,0.00,WUHU216DAVISVP2,2013-06-01 13:54:00,
2013-06-01 09:59:00,79.0,70.6,30.06,SW,223,6.0,18.0,75,0.00,,,0.00,WUHU216DAVISVP2,2013-06-01 13:59:00,
2013-06-01 10:04:00,79.1,70.3,30.07,SW,223,8.0,18.0,74,0.00,,,0.00,WUHU216DAVISVP2,2013-06-01 14:04:00,
2013-06-01 10:09:00,78.9,70.3,30.07,NW,315,5.0,15.0,75,0.00,,,0.00,WUHU216DAVISVP2,2013-06-01 14:09:00,
2013-06-01 10:14:00,78.8,70.4,30.07,SW,220,5.0,15.0,75,0.00,,,0.00,WUHU216DAVISVP2,2013-06-01 14:14:00,
2013-06-01 10:19:00,78.7,70.7,30.07,SW,225,6.0,15.0,76,0.00,,,0.00,WUHU216DAVISVP2,2013-06-01 14:19:00,
2013-06-01 10:24:00,78.2,69.8,30.07,South,180,6.0,12.0,75,0.00,,,0.00,WUHU216DAVISVP2,2013-06-01 14:24:00,
2013-06-01 10:29:00,77.7,69.7,30.07,WSW,254,5.0,12.0,76,0.00,,,0.00,WUHU216DAVISVP2,2013-06-01 14:29:00,
2013-06-01 10:34:00,77.6,69.6,30.08,SSW,194,2.0,12.0,76,0.00,,,0.00,WUHU216DAVISVP2,2013-06-01 14:34:00,
2013-06-01 10:39:00,77.5,69.9,30.07,SSW,211,6.0,12.0,77,0.00,,,0.00,WUHU216DAVISVP2,2013-06-01 14:39:00,
2013-06-01 10:44:00,78.0,70.7,30.08,SSW,196,3.0,12.0,78,0.00,,,0.00,WUHU216DAVISVP2,2013-06-01 14:44:00,
2013-06-01 10:49:00,78.4,70.7,30.08,SW,215,7.0,12.0,77,0.00,,,0.00,WUHU216DAVISVP2,2013-06-01 14:49:00,
2013-06-01 10:54:00,78.9,70.5,30.08,SSW,198,3.0,12.0,75,0.00,,,0.00,WUHU216DAVISVP2,2013-06-01 14:54:00,
2013-06-01 10:59:00,79.1,71.0,30.08,SSW,200,7.0,10.0,76,0.00,,,0.00,WUHU216DAVISVP2,2013-06-01 14:59:00,
2013-06-01 11:04:00,79.4,71.0,30.08,SW,225,4.0,10.0,75,0.00,,,0.00,WUHU216DAVISVP2,2013-06-01 15:04:00,
2013-06-01 11:09:00,79.4,71.0,30.08,SSW,202,1.0,10.0,75,0.00,,,0.00,WUHU216DAVISVP2,2013-06-01 15:09:00,
2013-06-01 11:14:00,79.1,71.0,30.08,SSW,192,5.0,10.0,76,0.00,,,0.00,WUHU216DAVISVP2,2013-06-01 15:14:00,
2013-06-01 11:19:00,78.8,70.4,30.08,WSW,243,6.0,10.0,75,0.00,,,0.00,WUHU216DAVISVP2,2013-06-01 15:19:00,
2013-06-01 11:24:00,78.5,70.1,30.08,SSW,209,3.0,10.0,75,0.00,,,0.00,WUHU216DAVISVP2,2013-06-01 15:24:00,
2013-06-01 11:29:00,78.4,70.4,30.08,SSW,207,4.0,9.0,76,0.00,,,0.00,WUHU216DAVISVP2,2013-06-01 15:29:00,
2013-06-01 11:34:00,78.6,70.9,30.08,SW,214,3.0,10.0,77,0.00,,,0.00,WUHU216DAVISVP2,2013-06-01 15:34:00,
2013-06-01 11:39:00,78.9,70.5,30.08,SSW,212,2.0,10.0,75,0.00,,,0.00,WUHU216DAVISVP2,2013-06-01 15:39:00,
2013-06-01 11:44:00,79.0,70.4,30.08,SW,232,4.0,10.0,75,0.00,,,0.00,WUHU216DAVISVP2,2013-06-01 15:44:00,
2013-06-01 11:49:00,79.0,70.9,30.08,SW,225,5.0,11.0,76,0.00,,,0.00,WUHU216DAVISVP2,2013-06-01 15:49:00,
2013-06-01 11:54:00,79.3,71.2,30.08,SW,217,5.0,11.0,76,0.00,,,0.00,WUHU216DAVISVP2,2013-06-01 15:54:00,
2013-06-01 11:59:00,79.3,70.9,30.08,SW,215,3.0,11.0,75,0.00,,,0.00,WUHU216DAVISVP2,2013-06-01 15:59:00,
2013-06-01 12:04:00,79.3,70.3,30.08,SSW,201,5.0,11.0,74,0.00,,,0.00,WUHU216DAVISVP2,2013-06-01 16:04:00,
2013-06-01 12:09:00,79.4,71.3,30.07,SW,221,3.0,9.0,76,0.00,,,0.00,WUHU216DAVISVP2,2013-06-01 16:09:00,
2013-06-01 12:14:00,79.4,71.0,30.07,SW,225,4.0,13.0,75,0.00,,,0.00,WUHU216DAVISVP2,2013-06-01 16:14:00,
2013-06-01 12:19:00,79.6,70.8,30.07,SSW,198,7.0,13.0,74,0.00,,,0.00,WUHU216DAVISVP2,2013-06-01 16:19:00,
2013-06-01 12:24:00,80.0,71.9,30.07,SW,235,3.0,13.0,76,0.00,,,0.00,WUHU216DAVISVP2,2013-06-01 16:24:00,
2013-06-01 12:29:00,80.4,71.2,30.06,WSW,248,2.0,13.0,73,0.00,,,0.00,WUHU216DAVISVP2,2013-06-01 16:29:00,
2013-06-01 12:34:00,81.1,71.8,30.06,WSW,243,5.0,10.0,73,0.00,,,0.00,WUHU216DAVISVP2,2013-06-01 16:34:00,
2013-06-01 12:39:00,81.8,71.7,30.06,SW,228,3.0,10.0,71,0.00,,,0.00,WUHU216DAVISVP2,2013-06-01 16:39:00,
2013-06-01 12:44:00,82.3,72.6,30.05,SSW,211,1.0,10.0,72,0.00,,,0.00,WUHU216DAVISVP2,2013-06-01 16:44:00,
2013-06-01 12:49:00,83.0,72.0,30.05,West,273,5.0,13.0,69,0.00,,,0.00,WUHU216DAVISVP2,2013-06-01 16:49:00,
2013-06-01 12:54:00,83.3,72.9,30.05,SSE,166,2.0,13.0,71,0.00,,,0.00,WUHU216DAVISVP2,2013-06-01 16:54:00,
2013-06-01 12:59:00,83.6,71.5,30.05,SSW,202,3.0,13.0,67,0.00,,,0.00,WUHU216DAVISVP2,2013-06-01 16:59:00,
2013-06-01 13:04:00,83.4,73.0,30.05,SW,215,1.0,13.0,71,0.00,,,0.00,WUHU216DAVISVP2,2013-06-01 17:04:00,
2013-06-01 13:09:00,83.0,71.6,30.04,SW,217,5.0,12.0,68,0.00,,,0.00,WUHU216DAVISVP2,2013-06-01 17:09:00,
2013-06-01 13:14:00,82.9,71.5,30.05,WNW,289,1.0,12.0,68,0.00,,,0.00,WUHU216DAVISVP2,2013-06-01 17:14:00,
2013-06-01 13:19:00,82.9,72.3,30.04,WSW,242,1.0,12.0,70,0.00,,,0.00,WUHU216DAVISVP2,2013-06-01 17:19:00,
2013-06-01 13:24:00,82.7,72.6,30.04,SSW,207,6.0,12.0,71,0.00,,,0.00,WUHU216DAVISVP2,2013-06-01 17:24:00,
2013-06-01 13:29:00,83.1,72.1,30.04,SW,219,3.0,10.0,69,0.00,,,0.00,WUHU216DAVISVP2,2013-06-01 17:29:00,
2013-06-01 13:34:00,83.6,72.2,30.04,WSW,242,5.0,12.0,68,0.00,,,0.00,WUHU216DAVISVP2,2013-06-01 17:34:00,
2013-06-01 13:39:00,83.8,71.5,30.04,West,270,9.0,12.0,66,0.00,,,0.00,WUHU216DAVISVP2,2013-06-01 17:39:00,
2013-06-01 13:44:00,83.2,71.4,30.04,SSW,210,3.0,12.0,67,0.00,,,0.00,WUHU216DAVISVP2,2013-06-01 17:44:00,
2013-06-01 13:49:00,83.0,72.9,30.03,NW,304,7.0,12.0,71,0.00,,,0.00,WUHU216DAVISVP2,2013-06-01 17:49:00,
2013-06-01 13:54:00,83.3,71.9,30.03,WSW,257,5.0,14.0,68,0.00,,,0.00,WUHU216DAVISVP2,2013-06-01 17:54:00,
2013-06-01 13:59:00,83.9,72.0,30.03,SW,236,6.0,14.0,67,0.00,,,0.00,WUHU216DAVISVP2,2013-06-01 17:59:00,
2013-06-01 14:04:00,84.1,72.2,30.03,SSW,202,6.0,16.0,67,0.00,,,0.00,WUHU216DAVISVP2,2013-06-01 18:04:00,
2013-06-01 14:09:00,84.6,71.4,30.03,NW,313,5.0,16.0,64,0.00,,,0.00,WUHU216DAVISVP2,2013-06-01 18:09:00,
2013-06-01 14:14:00,85.5,74.4,30.02,South,171,9.0,16.0,69,0.00,,,0.00,WUHU216DAVISVP2,2013-06-01 18:14:00,
2013-06-01 14:19:00,86.1,72.3,30.03,South,182,6.0,16.0,63,0.00,,,0.00,WUHU216DAVISVP2,2013-06-01 18:19:00,
2013-06-01 14:24:00,85.8,72.0,30.03,SSW,209,3.0,16.0,63,0.00,,,0.00,WUHU216DAVISVP2,2013-06-01 18:24:00,
2013-06-01 14:29:00,85.5,71.9,30.02,SW,221,9.0,16.0,64,0.00,,,0.00,WUHU216DAVISVP2,2013-06-01 18:29:00,
2013-06-01 14:34:00,85.4,71.6,30.02,SSW,205,2.0,16.0,63,0.00,,,0.00,WUHU216DAVISVP2,2013-06-01 18:34:00,
2013-06-01 14:39:00,85.6,72.3,30.02,SSE,155,3.0,16.0,64,0.00,,,0.00,WUHU216DAVISVP2,2013-06-01 18:39:00,
2013-06-01 14:44:00,86.0,72.7,30.01,ENE,76,4.0,15.0,64,0.00,,,0.00,WUHU216DAVISVP2,2013-06-01 18:44:00,
2013-06-01 14:49:00,86.0,71.0,30.01,SW,219,6.0,17.0,61,0.00,,,0.00,WUHU216DAVISVP2,2013-06-01 18:49:00,
2013-06-01 14:54:00,85.3,71.6,30.01,SW,233,6.0,17.0,63,0.00,,,0.00,WUHU216DAVISVP2,2013-06-01 18:54:00,
2013-06-01 14:59:00,84.6,71.1,30.01,SW,226,4.0,17.0,64,0.00,,,0.00,WUHU216DAVISVP2,2013-06-01 18:59:00,
2013-06-01 15:04:00,84.4,72.2,30.00,WSW,247,2.0,17.0,67,0.00,,,0.00,WUHU216DAVISVP2,2013-06-01 19:04:00,
2013-06-01 15:09:00,84.1,72.2,30.01,South,174,2.0,15.0,67,0.00,,,0.00,WUHU216DAVISVP2,2013-06-01 19:09:00,
2013-06-01 15:14:00,83.5,71.6,30.01,WSW,242,8.0,15.0,67,0.00,,,0.00,WUHU216DAVISVP2,2013-06-01 19:14:00,
2013-06-01 15:19:00,83.7,72.4,30.00,SSW,198,2.0,15.0,69,0.00,,,0.00,WUHU216DAVISVP2,2013-06-01 19:19:00,
2013-06-01 15:24:00,84.3,71.5,30.00,SSW,213,3.0,13.0,65,0.00,,,0.00,WUHU216DAVISVP2,2013-06-01 19:24:00,
2013-06-01 15:29:00,85.2,71.9,30.00,West,273,6.0,13.0,64,0.00,,,0.00,WUHU216DAVISVP2,2013-06-01 19:29:00,
2013-06-01 15:35:00,85.6,72.3,30.00,SSW,200,2.0,13.0,64,0.00,,,0.00,WUHU216DAVISVP2,2013-06-01 19:35:00,
2013-06-01 15:40:00,85.1,72.3,29.99,South,180,2.0,11.0,65,0.00,,,0.00,WUHU216DAVISVP2,2013-06-01 19:40:00,
2013-06-01 15:45:00,84.9,72.1,29.99,SSW,193,2.0,11.0,65,0.00,,,0.00,WUHU216DAVISVP2,2013-06-01 19:45:00,
2013-06-01 15:50:00,84.7,72.4,29.99,SSW,192,3.0,11.0,66,0.00,,,0.00,WUHU216DAVISVP2,2013-06-01 19:50:00,
2013-06-01 15:55:00,84.2,72.3,29.99,SSW,201,7.0,11.0,67,0.00,,,0.00,WUHU216DAVISVP2,2013-06-01 19:55:00,
2013-06-01 16:00:00,83.3,72.3,29.99,WSW,242,8.0,11.0,69,0.00,,,0.00,WUHU216DAVISVP2,2013-06-01 20:00:00,
2013-06-01 16:05:00,82.7,72.2,29.99,SSW,213,4.0,9.0,70,0.00,,,0.00,WUHU216DAVISVP2,2013-06-01 20:05:00,
2013-06-01 16:10:00,82.0,71.9,29.99,SW,229,2.0,10.0,71,0.00,,,0.00,WUHU216DAVISVP2,2013-06-01 20:10:00,
2013-06-01 16:15:00,81.3,72.4,29.99,WNW,287,1.0,10.0,74,0.00,,,0.00,WUHU216DAVISVP2,2013-06-01 20:15:00,
2013-06-01 16:20:00,80.6,72.7,29.99,SW,215,3.0,10.0,77,0.00,,,0.00,WUHU216DAVISVP2,2013-06-01 20:20:00,
2013-06-01 16:25:00,80.1,73.0,29.99,SSW,209,1.0,10.0,79,0.00,,,0.00,WUHU216DAVISVP2,2013-06-01 20:25:00,
2013-06-01 16:30:00,79.4,73.1,29.99,SSW,210,1.0,9.0,81,0.00,,,0.00,WUHU216DAVISVP2,2013-06-01 20:30:00,
2013-06-01 16:35:00,78.7,73.8,29.99,SW,216,0.0,6.0,85,0.01,,,0.01,WUHU216DAVISVP2,2013-06-01 20:35:00,
2013-06-01 16:40:00,78.4,73.2,29.99,SSW,204,0.0,6.0,84,0.01,,,0.01,WUHU216DAVISVP2,2013-06-01 20:40:00,
2013-06-01 16:45:00,78.2,74.0,29.99,SSW,205,3.0,6.0,87,0.01,,,0.01,WUHU216DAVISVP2,2013-06-01 20:45:00,
2013-06-01 16:50:00,78.2,74.4,29.99,SSW,205,1.0,6.0,88,0.01,,,0.01,WUHU216DAVISVP2,2013-06-01 20:50:00,
2013-06-01 16:55:00,78.2,73.4,29.99,SSW,203,1.0,5.0,85,0.01,,,0.01,WUHU216DAVISVP2,2013-06-01 20:55:00,
2013-06-01 17:00:00,78.4,74.2,29.98,SSW,208,0.0,5.0,87,0.01,,,0.01,WUHU216DAVISVP2,2013-06-01 21:00:00,
2013-06-01 17:05:00,78.7,74.9,29.99,SSW,208,0.0,5.0,88,0.01,,,0.01,WUHU216DAVISVP2,2013-06-01 21:05:00,
2013-06-01 17:10:00,78.9,74.4,29.99,SSW,208,0.0,5.0,86,0.01,,,0.01,WUHU216DAVISVP2,2013-06-01 21:10:00,
2013-06-01 17:15:00,78.9,74.1,29.99,SSW,208,0.0,5.0,85,0.01,,,0.01,WUHU216DAVISVP2,2013-06-01 21:15:00,
2013-06-01 17:20:00,78.9,74.4,29.98,SSW,208,0.0,3.0,86,0.01,,,0.01,WUHU216DAVISVP2,2013-06-01 21:20:00,
2013-06-01 17:25:00,79.1,74.6,29.98,SSW,208,0.0,3.0,86,0.01,,,0.01,WUHU216DAVISVP2,2013-06-01 21:25:00,
2013-06-01 17:30:00,79.3,75.1,29.98,SSW,208,0.0,3.0,87,0.01,,,0.01,WUHU216DAVISVP2,2013-06-01 21:30:00,
2013-06-01 17:35:00,79.4,74.5,29.97,SSW,209,0.0,3.0,85,0.00,,,0.01,WUHU216DAVISVP2,2013-06-01 21:35:00,
2013-06-01 17:40:00,79.8,74.9,29.97,SSW,209,0.0,3.0,85,0.00,,,0.01,WUHU216DAVISVP2,2013-06-01 21:40:00,
2013-06-01 17:45:00,80.0,75.1,29.97,SSW,210,0.0,4.0,85,0.00,,,0.01,WUHU216DAVISVP2,2013-06-01 21:45:00,
2013-06-01 17:50:00,80.0,75.1,29.97,SSW,204,5.0,11.0,85,0.00,,,0.01,WUHU216DAVISVP2,2013-06-01 21:50:00,
2013-06-01 17:55:00,79.4,73.4,29.98,WSW,240,12.0,16.0,82,0.00,,,0.01,WUHU216DAVISVP2,2013-06-01 21:55:00,
2013-06-01 18:00:00,78.8,72.2,29.97,SW,220,3.0,16.0,80,0.01,,,0.02,WUHU216DAVISVP2,2013-06-01 22:00:00,
2013-06-01 18:05:00,78.4,72.5,29.97,SW,223,1.0,16.0,82,0.01,,,0.02,WUHU216DAVISVP2,2013-06-01 22:05:00,
2013-06-01 18:10:00,77.9,72.7,29.97,SW,225,2.0,16.0,84,0.01,,,0.02,WUHU216DAVISVP2,2013-06-01 22:10:00,
2013-06-01 18:15:00,77.4,71.9,29.97,SW,221,1.0,13.0,83,0.01,,,0.02,WUHU216DAVISVP2,2013-06-01 22:15:00,
2013-06-01 18:20:00,77.2,72.4,29.97,SSW,202,2.0,7.0,85,0.01,,,0.02,WUHU216DAVISVP2,2013-06-01 22:20:00,
2013-06-01 18:25:00,77.1,71.9,29.97,SW,230,5.0,11.0,84,0.01,,,0.02,WUHU216DAVISVP2,2013-06-01 22:25:00,
2013-06-01 18:30:00,76.8,71.3,29.97,WSW,246,5.0,11.0,83,0.01,,,0.02,WUHU216DAVISVP2,2013-06-01 22:30:00,
2013-06-01 18:35:00,76.8,71.7,29.97,SW,236,1.0,11.0,84,0.01,,,0.02,WUHU216DAVISVP2,2013-06-01 22:35:00,
2013-06-01 18:40:00,77.2,72.0,29.97,SW,218,4.0,11.0,84,0.01,,,0.02,WUHU216DAVISVP2,2013-06-01 22:40:00,
2013-06-01 18:45:00,77.5,71.9,29.97,SW,215,1.0,6.0,83,0.01,,,0.02,WUHU216DAVISVP2,2013-06-01 22:45:00,
2013-06-01 18:50:00,77.7,71.8,29.97,SW,234,0.0,6.0,82,0.01,,,0.02,WUHU216DAVISVP2,2013-06-01 22:50:00,
2013-06-01 18:55:00,77.8,72.2,29.97,SW,214,3.0,8.0,83,0.01,,,0.02,WUHU216DAVISVP2,2013-06-01 22:55:00,
2013-06-01 19:00:00,77.6,72.4,29.97,SSW,198,6.0,8.0,84,0.00,,,0.02,WUHU216DAVISVP2,2013-06-01 23:00:00,
2013-06-01 19:05:00,77.4,71.9,29.97,SSW,205,1.0,8.0,83,0.00,,,0.02,WUHU216DAVISVP2,2013-06-01 23:05:00,
2013-06-01 19:10:00,77.1,72.3,29.97,SSW,205,2.0,8.0,85,0.00,,,0.02,WUHU216DAVISVP2,2013-06-01 23:10:00,
2013-06-01 19:15:00,76.8,72.3,29.98,SW,236,4.0,8.0,86,0.00,,,0.02,WUHU216DAVISVP2,2013-06-01 23:15:00,
2013-06-01 19:20:00,76.4,72.3,30.00,SW,216,0.0,6.0,87,0.00,,,0.02,WUHU216DAVISVP2,2013-06-01 23:20:00,
2013-06-01 19:25:00,76.1,72.6,30.00,South,188,3.0,7.0,89,0.00,,,0.02,WUHU216DAVISVP2,2013-06-01 23:25:00,
2013-06-01 19:30:00,75.7,71.6,29.99,SSW,192,3.0,10.0,87,0.00,,,0.02,WUHU216DAVISVP2,2013-06-01 23:30:00,
2013-06-01 19:35:00,75.4,70.9,29.98,WSW,238,0.0,10.0,86,0.00,,,0.02,WUHU216DAVISVP2,2013-06-01 23:35:00,
2013-06-01 19:40:00,75.2,71.4,29.98,WSW,238,2.0,10.0,88,0.00,,,0.02,WUHU216DAVISVP2,2013-06-01 23:40:00,
2013-06-01 19:45:00,75.0,71.2,29.98,WSW,238,1.0,10.0,88,0.00,,,0.02,WUHU216DAVISVP2,2013-06-01 23:45:00,
2013-06-01 19:50:00,74.9,71.4,29.98,WSW,238,2.0,6.0,89,0.00,,,0.02,WUHU216DAVISVP2,2013-06-01 23:50:00,
2013-06-01 19:55:00,74.7,71.2,29.98,WSW,238,0.0,3.0,89,0.00,,,0.02,WUHU216DAVISVP2,2013-06-01 23:55:00,
2013-06-01 20:00:00,74.6,71.1,29.98,WSW,238,0.0,3.0,89,0.00,,,0.02,WUHU216DAVISVP2,2013-06-02 00:00:00,
2013-06-01 20:05:00,74.6,71.5,29.99,WSW,238,0.0,2.0,90,0.00,,,0.02,WUHU216DAVISVP2,2013-06-02 00:05:00,
2013-06-01 20:10:00,74.5,71.0,29.99,WSW,238,0.0,1.0,89,0.00,,,0.02,WUHU216DAVISVP2,2013-06-02 00:10:00,
2013-06-01 20:15:00,74.4,70.9,30.00,WSW,238,0.0,1.0,89,0.00,,,0.02,WUHU216DAVISVP2,2013-06-02 00:15:00,
2013-06-01 20:20:00,74.3,71.2,30.01,WSW,238,1.0,1.0,90,0.00,,,0.02,WUHU216DAVISVP2,2013-06-02 00:20:00,
2013-06-01 20:25:00,74.2,71.4,30.01,WSW,238,1.0,3.0,91,0.00,,,0.02,WUHU216DAVISVP2,2013-06-02 00:25:00,
2013-06-01 20:30:00,74.1,71.3,30.00,WSW,238,0.0,3.0,91,0.00,,,0.02,WUHU216DAVISVP2,2013-06-02 00:30:00,
2013-06-01 20:35:00,74.0,70.9,30.00,WSW,238,0.0,3.0,90,0.00,,,0.02,WUHU216DAVISVP2,2013-06-02 00:35:00,
2013-06-01 20:40:00,73.9,71.1,30.01,WSW,238,0.0,3.0,91,0.00,,,0.02,WUHU216DAVISVP2,2013-06-02 00:40:00,
2013-06-01 20:45:00,73.8,71.0,30.01,WSW,238,0.0,2.0,91,0.00,,,0.02,WUHU216DAVISVP2,2013-06-02 00:45:00,
2013-06-01 20:50:00,73.7,71.2,30.01,SW,219,2.0,4.0,92,0.00,,,0.02,WUHU216DAVISVP2,2013-06-02 00:50:00,
2013-06-01 20:55:00,73.7,71.2,30.01,SSW,203,4.0,6.0,92,0.00,,,0.02,WUHU216DAVISVP2,2013-06-02 00:55:00,
2013-06-01 21:00:00,73.7,71.2,30.01,SSW,209,5.0,13.0,92,0.00,,,0.02,WUHU216DAVISVP2,2013-06-02 01:00:00,
2013-06-01 21:05:00,73.8,71.0,30.01,SW,232,1.0,13.0,91,0.00,,,0.02,WUHU216DAVISVP2,2013-06-02 01:05:00,
2013-06-01 21:10:00,73.8,71.0,30.01,South,187,9.0,13.0,91,0.00,,,0.02,WUHU216DAVISVP2,2013-06-02 01:10:00,
2013-06-01 21:15:00,73.8,71.0,30.00,WSW,246,3.0,13.0,91,0.00,,,0.02,WUHU216DAVISVP2,2013-06-02 01:15:00,
2013-06-01 21:20:00,73.7,70.9,29.99,WSW,246,0.0,9.0,91,0.00,,,0.02,WUHU216DAVISVP2,2013-06-02 01:20:00,
2013-06-01 21:25:00,73.6,70.8,29.99,South,186,3.0,9.0,91,0.00,,,0.02,WUHU216DAVISVP2,2013-06-02 01:25:00,
2013-06-01 21:30:00,73.6,70.8,29.99,SSW,213,3.0,6.0,91,0.00,,,0.02,WUHU216DAVISVP2,2013-06-02 01:30:00,
2013-06-01 21:35:00,73.5,70.7,29.98,SW,228,4.0,6.0,91,0.00,,,0.02,WUHU216DAVISVP2,2013-06-02 01:35:00,
2013-06-01 21:40:00,73.4,70.6,29.98,SE,143,1.0,6.0,91,0.00,,,0.02,WUHU216DAVISVP2,2013-06-02 01:40:00,
2013-06-01 21:45:00,73.2,70.4,29.98,WSW,251,5.0,6.0,91,0.00,,,0.02,WUHU216DAVISVP2,2013-06-02 01:45:00,
2013-06-01 21:50:00,73.1,70.3,29.99,WSW,246,3.0,6.0,91,0.00,,,0.02,WUHU216DAVISVP2,2013-06-02 01:50:00,
2013-06-01 21:55:00,73.0,70.5,30.00,WSW,250,4.0,6.0,92,0.00,,,0.02,WUHU216DAVISVP2,2013-06-02 01:55:00,
2013-06-01 22:00:00,72.9,70.4,30.00,SW,232,1.0,6.0,92,0.00,,,0.02,WUHU216DAVISVP2,2013-06-02 02:00:00,
2013-06-01 22:05:00,72.9,70.4,30.00,SSW,207,1.0,6.0,92,0.00,,,0.02,WUHU216DAVISVP2,2013-06-02 02:05:00,
2013-06-01 22:10:00,72.9,70.4,30.00,SSW,207,0.0,5.0,92,0.00,,,0.02,WUHU216DAVISVP2,2013-06-02 02:10:00,
2013-06-01 22:15:00,72.9,70.4,29.99,SSW,205,0.0,5.0,92,0.00,,,0.02,WUHU216DAVISVP2,2013-06-02 02:15:00,
2013-06-01 22:20:00,72.9,70.4,29.99,ESE,123,1.0,4.0,92,0.00,,,0.02,WUHU216DAVISVP2,2013-06-02 02:20:00,
2013-06-01 22:25:00,72.9,70.4,30.00,WSW,242,2.0,4.0,92,0.00,,,0.02,WUHU216DAVISVP2,2013-06-02 02:25:00,
2013-06-01 22:30:00,72.8,70.3,30.00,WSW,242,0.0,4.0,92,0.00,,,0.02,WUHU216DAVISVP2,2013-06-02 02:30:00,
2013-06-01 22:35:00,72.8,70.7,30.00,WSW,242,0.0,4.0,93,0.00,,,0.02,WUHU216DAVISVP2,2013-06-02 02:35:00,
2013-06-01 22:40:00,72.7,70.5,30.00,WSW,242,0.0,4.0,93,0.00,,,0.02,WUHU216DAVISVP2,2013-06-02 02:40:00,
2013-06-01 22:45:00,72.7,70.5,30.00,WSW,242,0.0,2.0,93,0.00,,,0.02,WUHU216DAVISVP2,2013-06-02 02:45:00,
2013-06-01 22:50:00,72.7,70.5,30.00,WSW,242,0.0,3.0,93,0.00,,,0.02,WUHU216DAVISVP2,2013-06-02 02:50:00,
2013-06-01 22:55:00,72.7,70.5,30.00,SSE,165,1.0,3.0,93,0.00,,,0.02,WUHU216DAVISVP2,2013-06-02 02:55:00,
2013-06-01 23:00:00,72.7,70.5,30.00,SSW,203,0.0,3.0,93,0.00,,,0.02,WUHU216DAVISVP2,2013-06-02 03:00:00,
2013-06-01 23:05:00,72.6,70.4,30.00,SSW,203,1.0,3.0,93,0.00,,,0.02,WUHU216DAVISVP2,2013-06-02 03:05:00,
2013-06-01 23:10:00,72.6,70.4,30.00,WNW,287,0.0,3.0,93,0.00,,,0.02,WUHU216DAVISVP2,2013-06-02 03:10:00,
2013-06-01 23:15:00,72.6,70.4,29.99,WNW,287,0.0,3.0,93,0.00,,,0.02,WUHU216DAVISVP2,2013-06-02 03:15:00,
2013-06-01 23:20:00,72.5,70.3,29.99,WNW,289,0.0,3.0,93,0.00,,,0.02,WUHU216DAVISVP2,2013-06-02 03:20:00,
2013-06-01 23:25:00,72.5,70.3,29.98,WNW,290,0.0,3.0,93,0.00,,,0.02,WUHU216DAVISVP2,2013-06-02 03:25:00,
2013-06-01 23:30:00,72.4,70.3,29.98,WNW,289,0.0,2.0,93,0.00,,,0.02,WUHU216DAVISVP2,2013-06-02 03:30:00,
2013-06-01 23:35:00,72.1,70.3,29.98,WNW,289,0.0,2.0,94,0.00,,,0.02,WUHU216DAVISVP2,2013-06-02 03:35:00,
2013-06-01 23:40:00,72.0,70.2,29.99,WNW,289,0.0,2.0,94,0.00,,,0.02,WUHU216DAVISVP2,2013-06-02 03:40:00,
2013-06-01 23:45:00,71.9,70.1,29.98,WNW,289,0.0,2.0,94,0.01,,,0.03,WUHU216DAVISVP2,2013-06-02 03:45:00,
2013-06-01 23:50:00,71.9,70.0,29.98,SSW,206,2.0,8.0,94,0.01,,,0.03,WUHU216DAVISVP2,2013-06-02 03:50:00,
2013-06-01 23:55:00,71.9,70.0,29.98,SSW,207,0.0,8.0,94,0.01,,,0.03,WUHU216DAVISVP2,2013-06-02 03:55:00,